Weather History for Hoonah, AK

Change the Weather History Date:

Thursday, March 27, 2014

  Actual Average Record
Temperature  
Mean Temperature 32 °F -  
Max Temperature 37 °F 38 °F 50 °F (2011)
Min Temperature 27 °F 27 °F 23 °F (2008)
Degree Days  
Heating Degree Days 33    
Moisture  
Dew Point 11 °F    
Average Humidity 39    
Maximum Humidity 72    
Minimum Humidity 30    
Precipitation  
Precipitation 0.00 in - - ()
Sea Level Pressure  
Sea Level Pressure 29.84 in    
Wind  
Wind Speed 10 mph (East)    
Max Wind Speed 16 mph    
Max Gust Speed 23 mph    
Visibility 10 miles    
Events      
Averages and records for this station are not official NWS values.
T = Trace of Precipitation, MM = Missing Value Source: NWS Daily Summary

Daily Weather History Graph

Daily Weather History Graph

Search for Another Location

Airport:

Trip Planner

Search our weather history database for the weather conditions in past years. The results will help you decide how hot, cold, wet, or windy it might be!

Date:

Astronomy

Mar. 27, 2014 Rise Set
Actual Time 6:43 AM AKDT 7:32 PM AKDT
Civil Twilight 6:03 AM AKDT 8:12 PM AKDT
Nautical Twilight 5:15 AM AKDT 9:00 PM AKDT
Astronomical Twilight 4:21 AM AKDT 9:54 PM AKDT
Moon 5:20 AM AKDT (3/27) 3:53 PM AKDT (3/27)
Length of Visible Light 14h 08m
Length of Day
12h 48m
Waning Crescent, 12% of the Moon is Illuminated
Mar 27
Waning Crescent
Mar 30
New
Apr 7
First Quarter
Apr 14
Full
Apr 21
Last Quarter

Hourly Weather History & Observations

Time (AKDT) Temp. Windchill Dew Point Humidity Pressure Visibility Wind Dir Wind Speed Gust Speed Precip Events Conditions
12:56 AM 36.9 °F 29.6 °F 10.0 °F 33% 29.81 in 10.0 mi East 10.4 mph - N/A   Overcast
1:56 AM 36.0 °F 29.6 °F 11.1 °F 36% 29.82 in 10.0 mi East 8.1 mph - N/A   Overcast
2:56 AM 36.0 °F 29.6 °F 11.1 °F 36% 29.82 in 10.0 mi East 8.1 mph - N/A   Overcast
3:56 AM 34.9 °F 27.1 °F 10.0 °F 36% 29.82 in 10.0 mi East 10.4 mph - N/A   Overcast
4:56 AM 34.9 °F 27.7 °F 10.0 °F 36% 29.82 in 10.0 mi East 9.2 mph - N/A   Overcast
5:56 AM 34.9 °F 28.3 °F 9.1 °F 34% 29.82 in 10.0 mi East 8.1 mph - N/A   Mostly Cloudy
6:56 AM 34.0 °F 25.5 °F 9.1 °F 36% 29.82 in 10.0 mi East 11.5 mph - N/A   Overcast
7:56 AM 34.0 °F 26.0 °F 8.1 °F 34% 29.82 in 10.0 mi East 10.4 mph - N/A   Overcast
8:56 AM 34.9 °F 26.2 °F 7.2 °F 31% 29.83 in 10.0 mi East 12.7 mph - N/A   Overcast
9:56 AM 36.0 °F 27.5 °F 7.2 °F 30% 29.84 in 10.0 mi East 12.7 mph 23.0 mph N/A   Overcast
10:56 AM 36.9 °F 28.2 °F 8.1 °F 30% 29.85 in 10.0 mi East 13.8 mph 23.0 mph N/A   Overcast
11:56 AM 36.9 °F 28.7 °F 9.1 °F 32% 29.85 in 10.0 mi East 12.7 mph 19.6 mph N/A   Mostly Cloudy
12:56 PM 37.4 °F 28.9 °F 8.6 °F 30% 29.84 in 10.0 mi East 13.8 mph 19.6 mph N/A   Mostly Cloudy
1:56 PM 37.9 °F 28.9 °F 10.0 °F 32% 29.85 in 10.0 mi East 16.1 mph - N/A   Mostly Cloudy
2:56 PM 37.9 °F 29.2 °F 10.0 °F 32% 29.85 in 10.0 mi East 15.0 mph - N/A   Overcast
3:56 PM 37.9 °F 28.9 °F 10.0 °F 32% 29.85 in 10.0 mi East 16.1 mph 23.0 mph N/A   Overcast
4:56 PM 37.9 °F 30.9 °F 11.1 °F 33% 29.85 in 10.0 mi East 10.4 mph 19.6 mph N/A   Overcast
5:56 PM 36.9 °F 29.6 °F 10.0 °F 33% 29.85 in 10.0 mi East 10.4 mph - N/A   Overcast
6:56 PM 36.9 °F 32.2 °F 12.0 °F 36% 29.85 in 10.0 mi East 5.8 mph - N/A   Partly Cloudy
7:56 PM 34.9 °F 29.9 °F 11.1 °F 37% 29.85 in 10.0 mi East 5.8 mph - N/A   Clear
8:56 PM 30.0 °F - 17.1 °F 59% 29.85 in 10.0 mi Calm Calm - N/A   Clear
9:56 PM 28.0 °F - 17.1 °F 63% 29.86 in 10.0 mi Calm Calm - N/A   Overcast
10:56 PM 27.1 °F - 19.0 °F 72% 29.86 in 10.0 mi Calm Calm - N/A   Mostly Cloudy
11:56 PM 28.0 °F - 19.0 °F 69% 29.86 in 10.0 mi Calm Calm - N/A   Scattered Clouds